EW3429 Weather Reports


time (UTC)temp
F
wind
direction
speed
knots
gust
knots
rain 1hr
in
rain 24hr
in
rain mn
in
humidity
%
barometer
mb
20260507151509 63 132 0.0 2.6 0.02 0.06 0.05 80 1014.6
20260507151009 63 267 0.0 2.6 0.02 0.06 0.05 79 1014.4
20260507150508 63 339 1.7 2.6 0.02 0.06 0.05 79 1014.4
20260507145510 63 291 0.9 3.5 0.02 0.06 0.05 78 1014.6
20260507145008 63 250 1.7 2.6 0.02 0.06 0.05 77 1014.5
20260507144510 64 276 0.9 2.6 0.02 0.05 0.05 76 1014.4
20260507144011 64 255 0.9 3.5 0.01 0.04 0.04 75 1014.4
20260507143509 65 281 0.9 3.5 0.00 0.04 0.04 72 1014.5
20260507143000 65 327 1.7 3.5 0.00 0.04 0.03 71 1014.4
20260507142502 65 60 0.9 3.5 0.00 0.03 0.03 71 1014.6
20260507142000 65 316 0.9 1.7 0.00 0.03 0.03 71 1014.6
20260507141002 66 243 1.7 5.2 0.00 0.03 0.03 67 1014.3
20260507140501 66 283 0.0 7.8 0.00 0.03 0.03 66 1014.4
20260507140004 67 234 5.2 8.7 0.00 0.03 0.03 65 1014.4
20260507135502 67 5 1.7 8.7 0.00 0.03 0.03 64 1014.2
20260507135001 68 210 1.7 6.1 0.00 0.03 0.03 63 1014.2
20260507134501 68 235 2.6 3.5 0.00 0.03 0.03 61 1014.3
20260507134002 68 260 1.7 6.1 0.00 0.03 0.03 60 1014.2
20260507133459 69 299 0.0 8.7 0.00 0.03 0.03 59 1014.2
20260507133002 69 330 0.0 8.7 0.00 0.03 0.03 58 1014.1
20260507132502 69 275 1.7 3.5 0.00 0.03 0.03 58 1014.0
20260507132000 69 222 0.0 2.6 0.00 0.03 0.03 58 1014.1
20260507131459 69 15 0.9 2.6 0.00 0.03 0.03 59 1013.9
20260507131004 69 283 0.0 2.6 0.00 0.03 0.03 59 1014.1
20260507130501 69 139 0.9 0.9 0.00 0.03 0.03 60 1014.0
20260507125959 69 144 0.0 2.6 0.00 0.03 0.03 58 1013.9
20260507125502 69 286 0.0 2.6 0.00 0.03 0.03 57 1014.1
20260507125001 69 258 0.0 3.5 0.00 0.03 0.03 57 1014.1
20260507124002 69 357 1.7 5.2 0.00 0.03 0.03 58 1014.1
20260507123459 69 190 0.9 3.5 0.00 0.03 0.03 56 1013.8
20260507123000 70 124 0.0 2.6 0.00 0.03 0.03 57 1014.1
20260507122504 70 51 0.9 2.6 0.00 0.03 0.03 58 1013.8
20260507122000 70 70 0.0 3.5 0.00 0.03 0.03 58 1013.8
20260507121500 70 84 0.9 9.6 0.00 0.03 0.03 57 1014.1
20260507121004 70 11 1.7 9.6 0.00 0.03 0.03 56 1014.1
20260507120501 70 213 1.7 6.1 0.00 0.03 0.03 56 1014.1
20260507120000 70 219 1.7 3.5 0.00 0.03 0.03 56 1014.0
20260507115502 70 284 0.9 3.5 0.00 0.03 0.03 56 1014.2
20260507115001 70 287 1.7 3.5 0.00 0.03 0.03 56 1014.2
20260507114500 70 89 0.9 5.2 0.00 0.03 0.03 56 1014.3
20260507114002 70 225 2.6 5.2 0.00 0.03 0.03 56 1014.0
20260507113459 70 211 0.0 3.5 0.00 0.03 0.03 55 1014.0
20260507113000 70 209 1.7 2.6 0.00 0.03 0.03 55 1014.0
20260507112502 70 101 0.9 5.2 0.00 0.03 0.03 55 1013.9
20260507112000 71 5 0.9 5.2 0.00 0.03 0.03 53 1014.2
20260507111502 71 336 3.5 7.8 0.00 0.03 0.03 53 1014.0
20260507111002 72 342 4.3 7.8 0.00 0.03 0.03 52 1014.0
20260507110501 72 222 2.6 7.0 0.00 0.03 0.03 51 1014.1
20260507110000 72 342 3.5 5.2 0.00 0.03 0.03 54 1013.9
20260507105501 72 254 0.9 12.2 0.00 0.03 0.03 55 1014.0
20260507105000 72 236 1.7 12.2 0.00 0.03 0.03 55 1014.1
20260507104459 71 119 5.2 8.7 0.00 0.03 0.03 55 1013.9
20260507104001 71 104 2.6 7.0 0.00 0.03 0.03 54 1014.2
20260507103500 72 326 4.3 7.0 0.00 0.03 0.03 54 1014.3
20260507103000 71 258 2.6 7.0 0.00 0.03 0.03 55 1014.2
20260507102502 71 123 3.5 7.8 0.00 0.03 0.03 56 1014.1
20260507102003 71 261 0.9 9.6 0.00 0.03 0.03 57 1014.1
20260507101458 71 188 5.2 9.6 0.00 0.03 0.03 57 1014.5
20260507101003 70 293 5.2 7.8 0.00 0.03 0.03 59 1014.2
20260507100500 70 169 4.3 8.7 0.00 0.03 0.03 57 1014.1
20260507095959 70 261 2.6 8.7 0.00 0.03 0.03 59 1014.2
20260507094958 69 137 0.9 3.5 0.00 0.03 0.03 61 1014.0
20260507094001 69 93 1.7 5.2 0.00 0.03 0.03 62 1014.1
20260507093000 68 81 0.9 6.1 0.00 0.03 0.03 62 1014.0
20260507091958 68 1 0.0 2.6 0.00 0.03 0.03 64 1014.1
20260507091459 68 275 1.7 2.6 0.00 0.03 0.03 64 1014.1
20260507091003 68 84 0.0 3.5 0.00 0.03 0.03 63 1014.2
20260507090457 68 325 0.0 6.1 0.00 0.03 0.03 64 1014.3
20260507085958 67 116 0.9 8.7 0.00 0.03 0.03 64 1014.0
20260507084959 67 70 0.9 6.1 0.00 0.03 0.03 66 1014.2
20260507083957 66 225 6.1 7.0 0.00 0.03 0.03 68 1014.0
20260507082959 65 113 0.9 7.0 0.00 0.03 0.03 69 1013.8
20260507081958 65 123 0.0 5.2 0.00 0.03 0.03 68 1013.9
20260507081457 65 129 1.7 5.2 0.00 0.03 0.03 68 1013.9
20260507080957 65 130 1.7 2.6 0.00 0.03 0.03 69 1013.7
20260507080459 65 84 0.9 1.7 0.00 0.03 0.03 69 1013.9
20260507075957 65 41 0.9 1.7 0.00 0.03 0.03 71 1013.7
20260507075458 65 343 0.0 1.7 0.00 0.03 0.03 70 1013.7
20260507074958 65 88 0.0 2.6 0.00 0.03 0.03 69 1013.6
20260507074458 65 29 0.9 2.6 0.00 0.03 0.03 70 1013.6
20260507073957 65 112 0.9 5.2 0.00 0.03 0.03 68 1013.7
20260507073459 65 40 0.9 5.2 0.00 0.03 0.03 69 1013.5
20260507072957 65 224 2.6 7.0 0.00 0.03 0.03 68 1013.7
20260507072458 65 126 0.0 7.0 0.00 0.03 0.03 67 1013.4
20260507071959 65 299 3.5 7.0 0.00 0.03 0.03 69 1013.5
20260507071457 65 193 1.7 3.5 0.00 0.03 0.03 69 1013.5
20260507070958 65 7 0.9 3.5 0.00 0.03 0.03 71 1013.5
20260507070500 64 232 0.9 3.5 0.00 0.03 0.03 72 1013.7
20260507065956 64 308 0.9 3.5 0.00 0.03 0.03 71 1013.4
20260507065457 64 297 0.0 3.5 0.00 0.03 0.03 72 1013.4
20260507065015 64 142 1.7 3.5 0.00 0.03 0.03 71 1013.3
20260507064457 64 154 1.7 2.6 0.00 0.03 0.03 73 1013.7
20260507063957 63 110 0.0 2.6 0.00 0.03 0.03 74 1013.4
20260507063501 63 141 0.9 1.7 0.00 0.03 0.03 74 1013.2
20260507062958 63 133 0.0 1.7 0.00 0.03 0.03 73 1013.4
20260507062457 63 101 0.9 2.6 0.00 0.03 0.03 73 1013.2
20260507061959 63 235 2.6 2.6 0.00 0.03 0.03 74 1013.3
20260507060957 62 219 3.5 7.0 0.00 0.03 0.03 76 1013.2
20260507055957 62 142 1.7 5.2 0.00 0.03 0.03 76 1013.0
20260507055458 62 214 1.7 5.2 0.00 0.03 0.03 76 1013.2
20260507055001 62 160 1.7 5.2 0.00 0.03 0.03 77 1012.9
20260507054457 62 89 0.0 5.2 0.00 0.03 0.03 77 1013.2
20260507053956 62 224 1.7 5.2 0.00 0.03 0.03 77 1012.9
20260507053459 62 181 0.0 3.5 0.00 0.03 0.03 79 1013.1
20260507052500 61 107 0.0 0.0 0.00 0.03 0.03 81 1012.8
20260507052000 61 107 0.0 0.9 0.00 0.03 0.03 80 1012.7
20260507051458 61 107 0.0 0.9 0.00 0.03 0.03 80 1012.8
20260507050959 61 107 0.0 1.7 0.00 0.03 0.03 80 1012.5
20260507050500 61 107 0.0 2.6 0.00 0.03 0.03 80 1012.6
20260507045959 60 98 0.9 2.6 0.00 0.03 0.03 80 1012.6
20260507045458 60 78 0.9 2.6 0.00 0.03 0.03 80 1012.5
20260507045000 60 94 0.9 3.5 0.00 0.03 0.03 81 1012.4
20260507044459 60 158 0.9 5.2 0.00 0.03 0.03 81 1012.1
20260507043501 59 254 2.6 6.1 0.00 0.03 0.03 83 1012.3
20260507042959 59 225 0.0 3.5 0.00 0.03 0.03 84 1012.1
20260507042458 59 238 0.9 2.6 0.00 0.03 0.03 85 1012.0
20260507041946 59 271 1.7 2.6 0.00 0.03 0.03 85 1012.2
20260507041446 59 293 1.7 2.6 0.00 0.03 0.03 85 1011.9
20260507040949 59 274 0.0 2.6 0.00 0.03 0.03 85 1012.2
20260507040444 59 270 0.9 3.5 0.00 0.03 0.03 85 1012.0
20260507035945 58 255 0.9 3.5 0.00 0.03 0.03 85 1012.1
20260507035448 58 229 1.7 3.5 0.00 0.03 0.03 86 1012.1
20260507034944 58 229 2.6 3.5 0.00 0.03 0.03 86 1012.0
20260507033947 58 239 1.7 3.5 0.00 0.03 0.03 87 1011.8
20260507033445 58 256 0.0 3.5 0.00 0.03 0.03 88 1011.8
20260507032948 58 170 0.0 3.5 0.00 0.03 0.03 90 1011.5
20260507031944 56 197 0.0 2.6 0.00 0.03 0.03 91 1011.6
20260507030445 56 129 0.0 1.7 0.00 0.03 0.03 90 1011.6
20260507025448 56 16 0.0 0.0 0.00 0.03 0.03 89 1011.5
20260507024947 56 213 0.0 0.0 0.00 0.03 0.03 89 1011.6
20260507024444 56 305 0.0 0.0 0.00 0.03 0.03 89 1011.5
20260507023449 57 316 0.0 0.0 0.00 0.03 0.03 88 1011.7
20260507022945 57 308 0.0 0.9 0.00 0.03 0.03 89 1011.6
20260507022440 57 228 0.0 1.7 0.00 0.03 0.03 89 1011.6
20260507021933 57 118 1.7 1.7 0.00 0.03 0.03 89 1011.5
20260507021436 57 339 0.0 1.7 0.00 0.03 0.03 88 1011.8
20260507020933 58 279 0.9 1.7 0.00 0.03 0.03 87 1011.6
20260507020433 58 329 0.0 1.7 0.00 0.03 0.03 87 1011.7
20260507015938 58 330 0.0 0.0 0.00 0.03 0.03 87 1011.6
20260507015432 58 330 0.0 0.0 0.00 0.03 0.03 86 1011.7
20260507014932 59 330 0.0 0.0 0.00 0.03 0.03 86 1011.8
20260507014435 59 330 0.0 3.5 0.00 0.03 0.03 86 1011.7
20260507013932 59 330 0.0 3.5 0.00 0.03 0.03 86 1011.9
20260507012935 59 255 0.0 0.0 0.00 0.03 0.03 84 1011.9
20260507012433 60 255 0.0 0.0 0.00 0.03 0.03 84 1011.8
20260507011935 60 255 0.0 0.0 0.00 0.03 0.03 84 1011.8
20260507011435 60 253 0.0 0.0 0.00 0.03 0.03 83 1011.8
20260507010932 60 241 0.0 0.0 0.00 0.03 0.03 83 1011.7
20260507010434 61 170 0.0 0.0 0.00 0.03 0.03 82 1011.8
20260507005433 62 213 0.0 1.7 0.00 0.03 0.03 80 1011.8
20260507004423 63 260 0.0 2.6 0.00 0.03 0.03 77 1011.6
20260507003921 63 102 1.7 6.1 0.00 0.03 0.03 74 1011.9
20260507002922 63 91 3.5 8.7 0.00 0.03 0.03 75 1011.8
20260507002421 62 229 0.0 8.7 0.00 0.03 0.03 76 1011.7
20260507001925 62 223 1.7 5.2 0.00 0.03 0.03 77 1011.8
20260507001417 63 111 2.6 3.5 0.00 0.03 0.03 77 1011.9
20260507000917 63 84 0.9 5.2 0.00 0.03 0.03 77 1011.8
20260507000409 63 216 3.5 5.2 0.01 0.03 0.03 77 1011.8
20260506235909 63 105 0.0 3.5 0.01 0.03 0.03 77 1011.9
20260506235417 63 107 0.9 3.5 0.01 0.03 0.03 77 1012.1
20260506234909 62 309 1.7 3.5 0.02 0.03 0.03 78 1012.1
20260506234410 62 98 0.9 5.2 0.03 0.03 0.03 80 1011.7
20260506233911 62 121 0.9 5.2 0.03 0.03 0.03 80 1012.1
20260506233409 62 114 0.9 5.2 0.03 0.03 0.03 80 1011.8
20260506232412 62 134 1.7 14.8 0.03 0.03 0.03 81 1012.1
20260506231408 62 63 1.7 12.2 0.03 0.03 0.03 81 1012.2
20260506230911 63 137 0.9 6.1 0.02 0.03 0.02 79 1012.2
20260506230409 63 80 0.9 7.8 0.02 0.02 0.02 78 1012.4
20260506225913 64 5 1.7 7.8 0.02 0.02 0.02 75 1012.1
20260506225411 65 166 0.9 6.1 0.02 0.02 0.02 74 1012.2
20260506224909 65 169 1.7 12.2 0.00 0.01 0.00 71 1012.1
20260506224408 65 121 0.9 12.2 0.00 0.00 0.00 71 1012.1
20260506223911 65 135 2.6 3.5 0.00 0.00 0.00 70 1011.9
20260506223410 65 352 1.7 3.5 0.00 0.00 0.00 71 1011.6
20260506222908 65 17 0.9 5.2 0.00 0.00 0.00 70 1011.7
20260506222412 65 145 0.0 5.2 0.00 0.00 0.00 69 1011.5
20260506221908 66 48 1.7 7.0 0.00 0.00 0.00 68 1011.5
20260506221409 66 226 1.7 7.8 0.00 0.00 0.00 68 1011.6
20260506220913 65 137 3.5 7.8 0.00 0.00 0.00 68 1011.7
20260506220410 65 152 1.7 8.7 0.00 0.00 0.00 69 1011.6
20260506215412 64 210 7.0 11.3 0.00 0.00 0.00 73 1011.8
20260506214359 64 288 0.0 3.5 0.00 0.00 0.00 76 1011.6
20260506213358 64 269 0.0 0.0 0.00 0.00 0.00 75 1011.6
20260506212356 65 275 0.0 1.7 0.00 0.00 0.00 72 1011.5
20260506211858 65 275 0.0 6.1 0.00 0.00 0.00 72 1011.5
20260506211359 65 175 0.9 6.1 0.00 0.00 0.00 70 1011.3
20260506210845 65 115 0.9 5.2 0.00 0.00 0.00 71 1011.3
20260506210348 65 136 1.7 7.0 0.00 0.00 0.00 72 1011.1
20260506205846 64 131 2.6 7.0 0.00 0.00 0.00 75 1011.3
20260506205347 64 62 1.7 3.5 0.00 0.00 0.00 75 1011.2
20260506204847 65 95 0.9 5.2 0.00 0.00 0.00 74 1011.3
20260506204346 65 242 0.9 9.6 0.00 0.00 0.00 75 1011.2
20260506203845 65 133 0.9 9.6 0.00 0.00 0.00 74 1011.5
20260506203347 65 206 2.6 8.7 0.00 0.00 0.00 75 1011.5
20260506202844 65 321 0.9 9.6 0.00 0.00 0.00 76 1011.7
20260506202345 65 88 1.7 12.2 0.00 0.00 0.00 75 1011.6
20260506201848 66 261 0.9 12.2 0.00 0.00 0.00 73 1011.7
20260506201344 67 225 4.3 13.9 0.00 0.00 0.00 68 1012.0
20260506200347 69 215 6.1 15.6 0.00 0.00 0.00 61 1012.0
20260506195345 70 335 3.5 20.0 0.00 0.00 0.00 57 1011.6
20260506194848 71 139 8.7 20.0 0.00 0.00 0.00 55 1011.6
20260506194345 71 174 4.3 9.6 0.00 0.00 0.00 54 1011.1
20260506193847 71 145 3.5 7.0 0.00 0.00 0.00 53 1010.9
20260506193332 71 315 0.0 5.2 0.00 0.00 0.00 54 1010.7
20260506192833 71 176 0.9 11.3 0.00 0.00 0.00 54 1011.0
20260506192339 70 208 2.6 11.3 0.00 0.00 0.00 54 1011.1
20260506191834 70 123 0.9 6.1 0.00 0.00 0.00 55 1010.9
20260506191332 69 196 0.9 6.1 0.00 0.00 0.00 56 1011.1
20260506190836 69 350 0.0 3.5 0.00 0.00 0.00 57 1010.6
20260506190334 69 133 0.0 3.5 0.00 0.00 0.00 57 1010.9
20260506185833 69 49 0.0 5.2 0.00 0.00 0.00 56 1010.5
20260506184833 69 308 1.7 3.5 0.00 0.00 0.00 55 1010.5
20260506183835 70 235 1.7 3.5 0.00 0.00 0.00 53 1010.7
20260506183330 71 320 0.0 3.5 0.00 0.00 0.00 53 1010.3
20260506182825 71 290 2.6 3.5 0.00 0.00 0.00 52 1010.1
20260506182308 71 215 1.7 5.2 0.00 0.00 0.00 51 1010.3
20260506181811 71 156 0.9 5.2 0.00 0.00 0.00 51 1010.2
20260506181310 72 175 0.9 7.0 0.00 0.00 0.00 50 1010.0
20260506180808 72 265 0.9 7.0 0.00 0.00 0.00 50 1010.3
20260506175808 72 196 0.0 8.7 0.00 0.00 0.00 50 1010.0
20260506175309 72 254 0.9 8.7 0.00 0.00 0.00 49 1010.0
20260506174813 73 241 0.9 5.2 0.00 0.00 0.00 49 1010.0
20260506174309 73 233 0.0 5.2 0.00 0.00 0.00 49 1010.0
20260506173809 73 287 1.7 5.2 0.00 0.00 0.00 49 1010.1
20260506173313 73 301 0.0 6.1 0.00 0.00 0.00 48 1010.1
20260506172808 74 287 0.0 6.1 0.00 0.00 0.00 48 1010.0
20260506172309 74 339 0.9 3.5 0.00 0.00 0.00 48 1010.0
20260506171812 74 109 0.9 3.5 0.00 0.00 0.00 47 1009.8
20260506171310 74 201 0.0 6.1 0.00 0.00 0.00 47 1010.2
20260506170809 74 122 2.6 6.1 0.00 0.00 0.00 47 1009.9
20260506170311 74 239 1.7 6.1 0.00 0.00 0.00 46 1009.9
20260506165809 75 191 1.7 6.1 0.00 0.00 0.00 46 1009.9
20260506164308 75 124 0.9 7.0 0.00 0.00 0.00 45 1010.0
20260506163311 75 278 2.6 7.8 0.00 0.00 0.00 44 1009.7
20260506162810 76 111 2.6 7.8 0.00 0.00 0.00 44 1009.8
20260506162311 76 93 1.7 11.3 0.00 0.00 0.00 44 1010.0
20260506161811 76 310 2.6 11.3 0.00 0.00 0.00 43 1010.1
20260506161308 76 283 1.7 7.8 0.00 0.00 0.00 43 1010.1
20260506160810 76 107 1.7 5.2 0.00 0.00 0.00 42 1010.0
20260506160311 77 73 0.0 9.6 0.00 0.00 0.00 42 1009.9
20260506155809 77 179 2.6 9.6 0.00 0.00 0.00 42 1010.1
20260506155309 77 214 1.7 7.8 0.00 0.00 0.00 43 1009.9
20260506154813 77 148 1.7 8.7 0.00 0.00 0.00 42 1010.1
20260506154309 77 75 0.0 8.7 0.00 0.00 0.00 42 1010.0
20260506153809 77 160 3.5 8.7 0.00 0.00 0.00 42 1010.2
20260506153313 77 222 2.6 8.7 0.00 0.00 0.00 42 1010.1
20260506152814 77 301 2.6 8.7 0.00 0.00 0.00 42 1010.1
20260506152308 77 283 0.9 8.7 0.00 0.00 0.00 41 1010.2
20260506151812 77 34 1.7 8.7 0.00 0.00 0.00 41 1010.0